Terminal Aerodrome Forecast
Issued by NWS

Home | Current Version | Previous Version | Graphics & Text | Print | Product List | Glossary On
Versions: 1 2 3 4 5 6 7 8 9 10 11 12 13 14 15 16 17 18 19 20 21 22 23 24 25 26 27 28 29 30 31 32 33 34
000
FTUS43 KLOT 010900 AAA
TAFDPA
TAF AMD
KDPA 010905Z 0109/0206 VRB03KT 4SM BR OVC008
      TEMPO 0109/0113 2SM BR OVC006
     FM011600 25008KT P6SM OVC030
     FM020300 30011G18KT P6SM SCT030=

USA.gov is the U.S. government's official web portal to all federal, state and local government web resources and services.